Year,Month,Day,Hour,Minute,Value (Times are PST for temperature in C)
2007,07,22,00,00,16.30
2007,07,22,00,01,16.30
2007,07,22,00,02,16.40
2007,07,22,00,03,16.40
2007,07,22,00,04,16.40
2007,07,22,00,05,16.30
2007,07,22,00,06,16.30
2007,07,22,00,07,16.30
2007,07,22,00,08,16.30
2007,07,22,00,09,16.40
2007,07,22,00,10,16.40
2007,07,22,00,11,16.30
2007,07,22,00,12,16.30
2007,07,22,00,13,16.30
2007,07,22,00,14,16.30
2007,07,22,00,15,16.30
2007,07,22,00,16,16.30
2007,07,22,00,17,16.30
2007,07,22,00,18,16.30
2007,07,22,00,19,16.30
2007,07,22,00,20,16.30
2007,07,22,00,21,16.30
2007,07,22,00,22,16.30
2007,07,22,00,23,16.30
2007,07,22,00,24,16.30
2007,07,22,00,25,16.20
2007,07,22,00,26,16.20
2007,07,22,00,27,16.20
2007,07,22,00,28,16.20
2007,07,22,00,29,16.20
2007,07,22,00,30,16.20
2007,07,22,00,31,16.20
2007,07,22,00,32,16.20
2007,07,22,00,33,16.20
2007,07,22,00,34,16.20
2007,07,22,00,35,16.30
2007,07,22,00,36,16.30
2007,07,22,00,37,16.30
2007,07,22,00,38,16.30
2007,07,22,00,39,16.30
2007,07,22,00,40,16.30
2007,07,22,00,41,16.20
2007,07,22,00,42,16.20
2007,07,22,00,43,16.20
2007,07,22,00,44,16.20
2007,07,22,00,45,16.20
2007,07,22,00,46,16.20
2007,07,22,00,47,16.20
2007,07,22,00,48,16.20
2007,07,22,00,49,16.20
2007,07,22,00,50,16.20
2007,07,22,00,51,16.20
2007,07,22,00,52,16.20
2007,07,22,00,53,16.10
2007,07,22,00,54,16.20
2007,07,22,00,55,16.20
2007,07,22,00,56,16.20
2007,07,22,00,57,16.20
2007,07,22,00,58,16.20
2007,07,22,00,59,16.20
2007,07,22,01,00,16.20
2007,07,22,01,01,16.20
2007,07,22,01,02,16.20
2007,07,22,01,03,16.20
2007,07,22,01,04,16.20
2007,07,22,01,05,16.20
2007,07,22,01,06,16.20
2007,07,22,01,07,16.20
2007,07,22,01,08,16.20
2007,07,22,01,09,16.20
2007,07,22,01,10,16.20
2007,07,22,01,11,16.20
2007,07,22,01,12,16.20
2007,07,22,01,13,16.20
2007,07,22,01,14,16.20
2007,07,22,01,15,16.20
2007,07,22,01,16,16.30
2007,07,22,01,17,16.30
2007,07,22,01,18,16.30
2007,07,22,01,19,16.30
2007,07,22,01,20,16.30
2007,07,22,01,21,16.30
2007,07,22,01,22,16.30
2007,07,22,01,23,16.30
2007,07,22,01,24,16.30
2007,07,22,01,25,16.30
2007,07,22,01,26,16.30
2007,07,22,01,27,16.30
2007,07,22,01,28,16.30
2007,07,22,01,29,16.30
2007,07,22,01,30,16.20
2007,07,22,01,31,16.20
2007,07,22,01,32,16.20
2007,07,22,01,33,16.20
2007,07,22,01,34,16.20
2007,07,22,01,35,16.20
2007,07,22,01,36,16.20
2007,07,22,01,37,16.20
2007,07,22,01,38,16.20
2007,07,22,01,39,16.20
2007,07,22,01,40,16.20
2007,07,22,01,41,16.20
2007,07,22,01,42,16.20
2007,07,22,01,43,16.20
2007,07,22,01,44,16.20
2007,07,22,01,45,16.20
2007,07,22,01,46,16.20
2007,07,22,01,47,16.20
2007,07,22,01,48,16.20
2007,07,22,01,49,16.20
2007,07,22,01,50,16.20
2007,07,22,01,51,16.20
2007,07,22,01,52,16.20
2007,07,22,01,53,16.20
2007,07,22,01,54,16.20
2007,07,22,01,55,16.20
2007,07,22,01,56,16.20
2007,07,22,01,57,16.20
2007,07,22,01,58,16.20
2007,07,22,01,59,16.20
2007,07,22,02,00,16.20
2007,07,22,02,01,16.20
2007,07,22,02,02,16.20
2007,07,22,02,03,16.20
2007,07,22,02,04,16.20
2007,07,22,02,05,16.20
2007,07,22,02,06,16.20
2007,07,22,02,07,16.20
2007,07,22,02,08,16.20
2007,07,22,02,09,16.20
2007,07,22,02,10,16.20
2007,07,22,02,11,16.20
2007,07,22,02,12,16.20
2007,07,22,02,13,16.20
2007,07,22,02,14,16.20
2007,07,22,02,15,16.20
2007,07,22,02,16,16.20
2007,07,22,02,17,16.20
2007,07,22,02,18,16.20
2007,07,22,02,19,16.20
2007,07,22,02,20,16.20
2007,07,22,02,21,16.20
2007,07,22,02,22,16.20
2007,07,22,02,23,16.20
2007,07,22,02,24,16.20
2007,07,22,02,25,16.20
2007,07,22,02,26,16.20
2007,07,22,02,27,16.20
2007,07,22,02,28,16.20
2007,07,22,02,29,16.20
2007,07,22,02,30,16.20
2007,07,22,02,31,16.20
2007,07,22,02,32,16.20
2007,07,22,02,33,16.20
2007,07,22,02,34,16.20
2007,07,22,02,35,16.20
2007,07,22,02,36,16.20
2007,07,22,02,37,16.20
2007,07,22,02,38,16.20
2007,07,22,02,39,16.20
2007,07,22,02,40,16.20
2007,07,22,02,41,16.20
2007,07,22,02,42,16.20
2007,07,22,02,43,16.30
2007,07,22,02,44,16.30
2007,07,22,02,45,16.30
2007,07,22,02,46,16.30
2007,07,22,02,47,16.30
2007,07,22,02,48,16.30
2007,07,22,02,49,16.20
2007,07,22,02,50,16.20
2007,07,22,02,51,16.20
2007,07,22,02,52,16.20
2007,07,22,02,53,16.20
2007,07,22,02,54,16.20
2007,07,22,02,55,16.20
2007,07,22,02,56,16.20
2007,07,22,02,57,16.20
2007,07,22,02,58,16.20
2007,07,22,02,59,16.20
2007,07,22,03,00,16.20
2007,07,22,03,01,16.20
2007,07,22,03,02,16.20
2007,07,22,03,03,16.20
2007,07,22,03,04,16.20
2007,07,22,03,05,16.20
2007,07,22,03,06,16.20
2007,07,22,03,07,16.20
2007,07,22,03,08,16.20
2007,07,22,03,09,16.10
2007,07,22,03,10,16.10
2007,07,22,03,11,16.10
2007,07,22,03,12,16.10
2007,07,22,03,13,16.10
2007,07,22,03,14,16.10
2007,07,22,03,15,16.10
2007,07,22,03,16,16.10
2007,07,22,03,17,16.10
2007,07,22,03,18,16.10
2007,07,22,03,19,16.10
2007,07,22,03,20,16.10
2007,07,22,03,21,16.10
2007,07,22,03,22,16.10
2007,07,22,03,23,16.10
2007,07,22,03,24,16.00
2007,07,22,03,25,15.90
2007,07,22,03,26,15.90
2007,07,22,03,27,15.90
2007,07,22,03,28,15.90
2007,07,22,03,29,15.90
2007,07,22,03,30,15.90
2007,07,22,03,31,15.90
2007,07,22,03,32,15.90
2007,07,22,03,33,15.90
2007,07,22,03,34,15.90
2007,07,22,03,35,15.90
2007,07,22,03,36,15.90
2007,07,22,03,37,15.90
2007,07,22,03,38,15.90
2007,07,22,03,39,15.90
2007,07,22,03,40,15.90
2007,07,22,03,41,15.90
2007,07,22,03,42,15.90
2007,07,22,03,43,15.90
2007,07,22,03,44,15.90
2007,07,22,03,45,15.90
2007,07,22,03,46,15.90
2007,07,22,03,47,15.90
2007,07,22,03,48,15.90
2007,07,22,03,49,15.90
2007,07,22,03,50,15.90
2007,07,22,03,51,15.90
2007,07,22,03,52,15.90
2007,07,22,03,53,15.90
2007,07,22,03,54,15.90
2007,07,22,03,55,15.90
2007,07,22,03,56,15.90
2007,07,22,03,57,15.90
2007,07,22,03,58,15.90
2007,07,22,03,59,15.90
2007,07,22,04,00,15.90
2007,07,22,04,01,15.90
2007,07,22,04,02,15.90
2007,07,22,04,03,15.90
2007,07,22,04,04,16.00
2007,07,22,04,05,16.10
2007,07,22,04,06,16.10
2007,07,22,04,07,16.10
2007,07,22,04,08,16.10
2007,07,22,04,09,16.10
2007,07,22,04,10,16.10
2007,07,22,04,11,16.10
2007,07,22,04,12,16.10
2007,07,22,04,13,16.10
2007,07,22,04,14,16.10
2007,07,22,04,15,16.10
2007,07,22,04,16,16.10
2007,07,22,04,17,16.10
2007,07,22,04,18,16.10
2007,07,22,04,19,16.10
2007,07,22,04,20,16.10
2007,07,22,04,21,16.10
2007,07,22,04,22,16.10
2007,07,22,04,23,16.10
2007,07,22,04,24,16.10
2007,07,22,04,25,16.10
2007,07,22,04,26,16.10
2007,07,22,04,27,16.10
2007,07,22,04,28,16.10
2007,07,22,04,29,16.20
2007,07,22,04,30,16.20
2007,07,22,04,31,16.20
2007,07,22,04,32,16.20
2007,07,22,04,33,16.20
2007,07,22,04,34,16.20
2007,07,22,04,35,16.20
2007,07,22,04,36,16.20
2007,07,22,04,37,16.20
2007,07,22,04,38,16.20
2007,07,22,04,39,16.20
2007,07,22,04,40,16.20
2007,07,22,04,41,16.10
2007,07,22,04,42,16.10
2007,07,22,04,43,16.10
2007,07,22,04,44,16.10
2007,07,22,04,45,16.10
2007,07,22,04,46,16.10
2007,07,22,04,47,16.20
2007,07,22,04,48,16.20
2007,07,22,04,49,16.20
2007,07,22,04,50,16.20
2007,07,22,04,51,16.20
2007,07,22,04,52,16.20
2007,07,22,04,53,16.20
2007,07,22,04,54,16.20
2007,07,22,04,55,16.20
2007,07,22,04,56,16.20
2007,07,22,04,57,16.20
2007,07,22,04,58,16.20
2007,07,22,04,59,16.20
2007,07,22,05,00,16.20
2007,07,22,05,01,16.20
2007,07,22,05,02,16.20
2007,07,22,05,03,16.10
2007,07,22,05,04,16.10
2007,07,22,05,05,16.20
2007,07,22,05,06,16.20
2007,07,22,05,07,16.20
2007,07,22,05,08,16.20
2007,07,22,05,09,16.20
2007,07,22,05,10,16.20
2007,07,22,05,11,16.20
2007,07,22,05,12,16.20
2007,07,22,05,13,16.20
2007,07,22,05,14,16.20
2007,07,22,05,15,16.20
2007,07,22,05,16,16.20
2007,07,22,05,17,16.20
2007,07,22,05,18,16.20
2007,07,22,05,19,16.20
2007,07,22,05,20,16.20
2007,07,22,05,21,16.20
2007,07,22,05,22,16.20
2007,07,22,05,23,16.20
2007,07,22,05,24,16.20
2007,07,22,05,25,16.20
2007,07,22,05,26,16.20
2007,07,22,05,27,16.20
2007,07,22,05,28,16.20
2007,07,22,05,29,16.20
2007,07,22,05,30,16.20
2007,07,22,05,31,16.20
2007,07,22,05,32,16.20
2007,07,22,05,33,16.10
2007,07,22,05,34,16.10
2007,07,22,05,35,16.10
2007,07,22,05,36,16.10
2007,07,22,05,37,16.10
2007,07,22,05,38,16.10
2007,07,22,05,39,16.10
2007,07,22,05,40,16.10
2007,07,22,05,41,16.10
2007,07,22,05,42,16.10
2007,07,22,05,43,16.10
2007,07,22,05,44,16.10
2007,07,22,05,45,16.10
2007,07,22,05,46,16.10
2007,07,22,05,47,16.10
2007,07,22,05,48,16.10
2007,07,22,05,49,16.10
2007,07,22,05,50,16.10
2007,07,22,05,51,16.10
2007,07,22,05,52,16.10
2007,07,22,05,53,16.10
2007,07,22,05,54,16.10
2007,07,22,05,55,16.10
2007,07,22,05,56,16.10
2007,07,22,05,57,16.10
2007,07,22,05,58,16.10
2007,07,22,05,59,16.10
2007,07,22,06,00,16.10
2007,07,22,06,01,16.10
2007,07,22,06,02,16.10
2007,07,22,06,03,16.10
2007,07,22,06,04,16.10
2007,07,22,06,05,16.10
2007,07,22,06,06,16.10
2007,07,22,06,07,16.10
2007,07,22,06,08,16.10
2007,07,22,06,09,16.10
2007,07,22,06,10,16.10
2007,07,22,06,11,16.10
2007,07,22,06,12,16.10
2007,07,22,06,13,16.10
2007,07,22,06,14,16.10
2007,07,22,06,15,16.10
2007,07,22,06,16,16.10
2007,07,22,06,17,16.10
2007,07,22,06,18,16.10
2007,07,22,06,19,16.10
2007,07,22,06,20,16.10
2007,07,22,06,21,16.10
2007,07,22,06,22,16.10
2007,07,22,06,23,16.10
2007,07,22,06,24,16.10
2007,07,22,06,25,16.10
2007,07,22,06,26,16.10
2007,07,22,06,27,16.10
2007,07,22,06,28,16.10
2007,07,22,06,29,16.10
2007,07,22,06,30,16.10
2007,07,22,06,31,16.10
2007,07,22,06,32,16.10
2007,07,22,06,33,16.10
2007,07,22,06,34,16.10
2007,07,22,06,35,16.10
2007,07,22,06,36,16.10
2007,07,22,06,37,16.10
2007,07,22,06,38,16.00
2007,07,22,06,39,15.90
2007,07,22,06,40,15.90
2007,07,22,06,41,15.90
2007,07,22,06,42,15.90
2007,07,22,06,43,15.90
2007,07,22,06,44,15.90
2007,07,22,06,45,15.90
2007,07,22,06,46,15.90
2007,07,22,06,47,15.90
2007,07,22,06,48,15.90
2007,07,22,06,49,15.90
2007,07,22,06,50,15.90
2007,07,22,06,51,15.90
2007,07,22,06,52,15.90
2007,07,22,06,53,15.90
2007,07,22,06,54,15.90
2007,07,22,06,55,16.00
2007,07,22,06,56,16.10
2007,07,22,06,57,16.10
2007,07,22,06,58,16.10
2007,07,22,06,59,16.10
2007,07,22,07,00,16.10
2007,07,22,07,01,16.10
2007,07,22,07,02,16.10
2007,07,22,07,03,16.10
2007,07,22,07,04,16.10
2007,07,22,07,05,16.20
2007,07,22,07,06,16.20
2007,07,22,07,07,16.20
2007,07,22,07,08,16.20
2007,07,22,07,09,16.20
2007,07,22,07,10,16.20
2007,07,22,07,11,16.20
2007,07,22,07,12,16.20
2007,07,22,07,13,16.20
2007,07,22,07,14,16.20
2007,07,22,07,15,16.20
2007,07,22,07,16,16.20
2007,07,22,07,17,16.20
2007,07,22,07,18,16.20
2007,07,22,07,19,16.20
2007,07,22,07,20,16.20
2007,07,22,07,21,16.20
2007,07,22,07,22,16.20
2007,07,22,07,23,16.20
2007,07,22,07,24,16.20
2007,07,22,07,25,16.20
2007,07,22,07,26,16.20
2007,07,22,07,27,16.20
2007,07,22,07,28,16.20
2007,07,22,07,29,16.10
2007,07,22,07,30,16.20
2007,07,22,07,31,16.20
2007,07,22,07,32,16.20
2007,07,22,07,33,16.20
2007,07,22,07,34,16.20
2007,07,22,07,35,16.20
2007,07,22,07,36,16.20
2007,07,22,07,37,16.20
2007,07,22,07,38,16.20
2007,07,22,07,39,16.20
2007,07,22,07,40,16.20
2007,07,22,07,41,16.20
2007,07,22,07,42,16.20
2007,07,22,07,43,16.20
2007,07,22,07,44,16.20
2007,07,22,07,45,16.20
2007,07,22,07,46,16.20
2007,07,22,07,47,16.20
2007,07,22,07,48,16.20
2007,07,22,07,49,16.20
2007,07,22,07,50,16.20
2007,07,22,07,51,16.20
2007,07,22,07,52,16.20
2007,07,22,07,53,16.20
2007,07,22,07,54,16.10
2007,07,22,07,55,16.10
2007,07,22,07,56,16.10
2007,07,22,07,57,16.10
2007,07,22,07,58,16.10
2007,07,22,07,59,16.10
2007,07,22,08,00,16.10
2007,07,22,08,01,16.10
2007,07,22,08,02,16.10
2007,07,22,08,03,16.00
2007,07,22,08,04,15.90
2007,07,22,08,05,15.90
2007,07,22,08,06,15.90
2007,07,22,08,07,15.90
2007,07,22,08,08,15.90
2007,07,22,08,09,15.90
2007,07,22,08,10,15.90
2007,07,22,08,11,15.80
2007,07,22,08,12,15.80
2007,07,22,08,13,15.80
2007,07,22,08,14,15.80
2007,07,22,08,15,15.80
2007,07,22,08,16,15.80
2007,07,22,08,17,15.80
2007,07,22,08,18,15.80
2007,07,22,08,19,15.90
2007,07,22,08,20,15.90
2007,07,22,08,21,15.90
2007,07,22,08,22,15.90
2007,07,22,08,23,15.90
2007,07,22,08,24,15.90
2007,07,22,08,25,15.90
2007,07,22,08,26,15.90
2007,07,22,08,27,15.90
2007,07,22,08,28,15.90
2007,07,22,08,29,15.90
2007,07,22,08,30,15.90
2007,07,22,08,31,15.90
2007,07,22,08,32,15.90
2007,07,22,08,33,15.90
2007,07,22,08,34,15.90
2007,07,22,08,35,16.00
2007,07,22,08,36,16.10
2007,07,22,08,37,16.10
2007,07,22,08,38,16.10
2007,07,22,08,39,16.10
2007,07,22,08,40,16.10
2007,07,22,08,41,16.10
2007,07,22,08,42,16.10
2007,07,22,08,43,16.00
2007,07,22,08,44,16.10
2007,07,22,08,45,16.10
2007,07,22,08,46,16.10
2007,07,22,08,47,16.10
2007,07,22,08,48,16.10
2007,07,22,08,49,16.10
2007,07,22,08,50,16.10
2007,07,22,08,51,16.10
2007,07,22,08,52,16.10
2007,07,22,08,53,16.20
2007,07,22,08,54,16.20
2007,07,22,08,55,16.20
2007,07,22,08,56,16.30
2007,07,22,08,57,16.30
2007,07,22,08,58,16.40
2007,07,22,08,59,16.40
2007,07,22,09,00,16.40
2007,07,22,09,01,16.40
2007,07,22,09,02,16.50
2007,07,22,09,03,16.60
2007,07,22,09,04,16.60
2007,07,22,09,05,16.60
2007,07,22,09,06,16.60
2007,07,22,09,07,16.60
2007,07,22,09,08,16.60
2007,07,22,09,09,16.70
2007,07,22,09,10,16.70
2007,07,22,09,11,16.70
2007,07,22,09,12,16.70
2007,07,22,09,13,16.70
2007,07,22,09,14,16.70
2007,07,22,09,15,16.70
2007,07,22,09,16,16.70
2007,07,22,09,17,16.70
2007,07,22,09,18,16.70
2007,07,22,09,19,16.70
2007,07,22,09,20,16.70
2007,07,22,09,21,16.70
2007,07,22,09,22,16.70
2007,07,22,09,23,16.70
2007,07,22,09,24,16.70
2007,07,22,09,25,16.70
2007,07,22,09,26,16.80
2007,07,22,09,27,16.80
2007,07,22,09,28,16.80
2007,07,22,09,29,16.80
2007,07,22,09,30,16.80
2007,07,22,09,31,16.80
2007,07,22,09,32,16.80
2007,07,22,09,33,16.90
2007,07,22,09,34,16.80
2007,07,22,09,35,16.80
2007,07,22,09,36,16.80
2007,07,22,09,37,16.90
2007,07,22,09,38,16.90
2007,07,22,09,39,16.90
2007,07,22,09,40,16.80
2007,07,22,09,41,16.80
2007,07,22,09,42,16.80
2007,07,22,09,43,16.80
2007,07,22,09,44,16.90
2007,07,22,09,45,16.90
2007,07,22,09,46,16.90
2007,07,22,09,47,16.90
2007,07,22,09,48,16.90
2007,07,22,09,49,16.90
2007,07,22,09,50,16.90
2007,07,22,09,51,17.00
2007,07,22,09,52,17.00
2007,07,22,09,53,17.00
2007,07,22,09,54,17.00
2007,07,22,09,55,17.00
2007,07,22,09,56,17.00
2007,07,22,09,57,17.00
2007,07,22,09,58,17.00
2007,07,22,09,59,17.00
2007,07,22,10,00,17.00
2007,07,22,10,01,17.00
2007,07,22,10,02,17.00
2007,07,22,10,03,17.00
2007,07,22,10,04,17.10
2007,07,22,10,05,17.10
2007,07,22,10,06,17.10
2007,07,22,10,07,17.10
2007,07,22,10,08,17.10
2007,07,22,10,09,17.10
2007,07,22,10,10,17.20
2007,07,22,10,11,17.20
2007,07,22,10,12,17.20
2007,07,22,10,13,17.20
2007,07,22,10,14,17.30
2007,07,22,10,15,17.30
2007,07,22,10,16,17.30
2007,07,22,10,17,17.30
2007,07,22,10,18,17.30
2007,07,22,10,19,17.40
2007,07,22,10,20,17.50
2007,07,22,10,21,17.50
2007,07,22,10,22,17.60
2007,07,22,10,23,17.60
2007,07,22,10,24,17.60
2007,07,22,10,25,17.60
2007,07,22,10,26,17.60
2007,07,22,10,27,17.60
2007,07,22,10,28,17.70
2007,07,22,10,29,17.70
2007,07,22,10,30,17.80
2007,07,22,10,31,17.80
2007,07,22,10,32,17.90
2007,07,22,10,33,17.90
2007,07,22,10,34,17.90
2007,07,22,10,35,17.90
2007,07,22,10,36,17.90
2007,07,22,10,37,17.90
2007,07,22,10,38,17.90
2007,07,22,10,39,17.90
2007,07,22,10,40,18.00
2007,07,22,10,41,18.10
2007,07,22,10,42,18.10
2007,07,22,10,43,18.10
2007,07,22,10,44,18.20
2007,07,22,10,45,18.10
2007,07,22,10,46,18.20
2007,07,22,10,47,18.20
2007,07,22,10,48,18.20
2007,07,22,10,49,18.20
2007,07,22,10,50,18.20
2007,07,22,10,51,18.30
2007,07,22,10,52,18.30
2007,07,22,10,53,18.40
2007,07,22,10,54,18.40
2007,07,22,10,55,18.40
2007,07,22,10,56,18.40
2007,07,22,10,57,18.50
2007,07,22,10,58,18.50
2007,07,22,10,59,18.60
2007,07,22,11,00,18.70
2007,07,22,11,01,18.70
2007,07,22,11,02,18.80
2007,07,22,11,03,18.80
2007,07,22,11,04,18.80
2007,07,22,11,05,18.80
2007,07,22,11,06,18.70
2007,07,22,11,07,18.70
2007,07,22,11,08,18.80
2007,07,22,11,09,18.90
2007,07,22,11,10,19.00
2007,07,22,11,11,19.10
2007,07,22,11,12,19.20
2007,07,22,11,13,19.20
2007,07,22,11,14,19.30
2007,07,22,11,15,19.30
2007,07,22,11,16,19.40
2007,07,22,11,17,19.40
2007,07,22,11,18,19.40
2007,07,22,11,19,19.40
2007,07,22,11,20,19.50
2007,07,22,11,21,19.50
2007,07,22,11,22,19.60
2007,07,22,11,23,19.70
2007,07,22,11,24,19.70
2007,07,22,11,25,19.80
2007,07,22,11,26,19.90
2007,07,22,11,27,19.90
2007,07,22,11,28,19.90
2007,07,22,11,29,19.90
2007,07,22,11,30,19.90
2007,07,22,11,31,19.90
2007,07,22,11,32,19.90
2007,07,22,11,33,19.90
2007,07,22,11,34,19.90
2007,07,22,11,35,20.00
2007,07,22,11,36,20.10
2007,07,22,11,37,20.10
2007,07,22,11,38,20.20
2007,07,22,11,39,20.20
2007,07,22,11,40,20.20
2007,07,22,11,41,20.20
2007,07,22,11,42,20.20
2007,07,22,11,43,20.30
2007,07,22,11,44,20.30
2007,07,22,11,45,20.30
2007,07,22,11,46,20.30
2007,07,22,11,47,20.30
2007,07,22,11,48,20.30
2007,07,22,11,49,20.50
2007,07,22,11,50,20.50
2007,07,22,11,51,20.60
2007,07,22,11,52,20.60
2007,07,22,11,53,20.60
2007,07,22,11,54,20.60
2007,07,22,11,55,20.60
2007,07,22,11,56,20.60
2007,07,22,11,57,20.60
2007,07,22,11,58,20.60
2007,07,22,11,59,20.60
2007,07,22,12,00,20.50
2007,07,22,12,01,20.50
2007,07,22,12,02,20.50
2007,07,22,12,03,20.60
2007,07,22,12,04,20.60
2007,07,22,12,05,20.70
2007,07,22,12,06,20.70
2007,07,22,12,07,20.70
2007,07,22,12,08,20.70
2007,07,22,12,09,20.70
2007,07,22,12,10,20.70
2007,07,22,12,11,20.70
2007,07,22,12,12,20.70
2007,07,22,12,13,20.70
2007,07,22,12,14,20.80
2007,07,22,12,15,20.80
2007,07,22,12,16,20.70
2007,07,22,12,17,20.80
2007,07,22,12,18,20.80
2007,07,22,12,19,20.80
2007,07,22,12,20,20.90
2007,07,22,12,21,21.00
2007,07,22,12,22,21.00
2007,07,22,12,23,21.10
2007,07,22,12,24,21.10
2007,07,22,12,25,21.10
2007,07,22,12,26,21.10
2007,07,22,12,27,21.10
2007,07,22,12,28,21.10
2007,07,22,12,29,21.10
2007,07,22,12,30,21.10
2007,07,22,12,31,21.20
2007,07,22,12,32,21.20
2007,07,22,12,33,21.20
2007,07,22,12,34,21.30
2007,07,22,12,35,21.30
2007,07,22,12,36,21.30
2007,07,22,12,37,21.40
2007,07,22,12,38,21.40
2007,07,22,12,39,21.40
2007,07,22,12,40,21.40
2007,07,22,12,41,21.30
2007,07,22,12,42,21.40
2007,07,22,12,43,21.40
2007,07,22,12,44,21.40
2007,07,22,12,45,21.40
2007,07,22,12,46,21.30
2007,07,22,12,47,21.30
2007,07,22,12,48,21.30
2007,07,22,12,49,21.30
2007,07,22,12,50,21.30
2007,07,22,12,51,21.40
2007,07,22,12,52,21.40
2007,07,22,12,53,21.60
2007,07,22,12,54,21.60
2007,07,22,12,55,21.60
2007,07,22,12,56,21.70
2007,07,22,12,57,21.70
2007,07,22,12,58,21.70
2007,07,22,12,59,21.60
2007,07,22,13,00,21.60
2007,07,22,13,01,21.50
2007,07,22,13,02,21.40
2007,07,22,13,03,21.30
2007,07,22,13,04,21.30
2007,07,22,13,05,21.20
2007,07,22,13,06,21.10
2007,07,22,13,07,21.10
2007,07,22,13,08,21.00
2007,07,22,13,09,20.90
2007,07,22,13,10,20.70
2007,07,22,13,11,20.60
2007,07,22,13,12,20.60
2007,07,22,13,13,20.40
2007,07,22,13,14,20.30
2007,07,22,13,15,20.20
2007,07,22,13,16,20.20
2007,07,22,13,17,20.20
2007,07,22,13,18,20.20
2007,07,22,13,19,20.20
2007,07,22,13,20,20.20
2007,07,22,13,21,20.20
2007,07,22,13,22,20.20
2007,07,22,13,23,20.10
2007,07,22,13,24,20.10
2007,07,22,13,25,20.10
2007,07,22,13,26,19.90
2007,07,22,13,27,19.90
2007,07,22,13,28,19.90
2007,07,22,13,29,19.90
2007,07,22,13,30,19.90
2007,07,22,13,31,19.90
2007,07,22,13,32,19.90
2007,07,22,13,33,19.90
2007,07,22,13,34,19.90
2007,07,22,13,35,19.90
2007,07,22,13,36,19.90
2007,07,22,13,37,19.90
2007,07,22,13,38,19.90
2007,07,22,13,39,19.90
2007,07,22,13,40,19.90
2007,07,22,13,41,19.90
2007,07,22,13,42,19.90
2007,07,22,13,43,19.90
2007,07,22,13,44,19.90
2007,07,22,13,45,19.90
2007,07,22,13,46,19.80
2007,07,22,13,47,19.70
2007,07,22,13,48,19.60
2007,07,22,13,49,19.50
2007,07,22,13,50,19.40
2007,07,22,13,51,19.40
2007,07,22,13,52,19.20
2007,07,22,13,53,19.20
2007,07,22,13,54,19.20
2007,07,22,13,55,19.30
2007,07,22,13,56,19.30
2007,07,22,13,57,19.30
2007,07,22,13,58,19.30
2007,07,22,13,59,19.40
2007,07,22,14,00,19.40
2007,07,22,14,01,19.50
2007,07,22,14,02,19.50
2007,07,22,14,03,19.60
2007,07,22,14,04,19.60
2007,07,22,14,05,19.70
2007,07,22,14,06,19.70
2007,07,22,14,07,19.80
2007,07,22,14,08,19.70
2007,07,22,14,09,19.60
2007,07,22,14,10,19.60
2007,07,22,14,11,19.60
2007,07,22,14,12,19.60
2007,07,22,14,13,19.50
2007,07,22,14,14,19.50
2007,07,22,14,15,19.40
2007,07,22,14,16,19.40
2007,07,22,14,17,19.30
2007,07,22,14,18,19.20
2007,07,22,14,19,19.20
2007,07,22,14,20,19.10
2007,07,22,14,21,19.00
2007,07,22,14,22,18.90
2007,07,22,14,23,18.90
2007,07,22,14,24,19.00
2007,07,22,14,25,19.10
2007,07,22,14,26,19.10
2007,07,22,14,27,19.10
2007,07,22,14,28,19.10
2007,07,22,14,29,19.10
2007,07,22,14,30,19.10
2007,07,22,14,31,19.10
2007,07,22,14,32,19.10
2007,07,22,14,33,19.00
2007,07,22,14,34,18.90
2007,07,22,14,35,18.90
2007,07,22,14,36,18.90
2007,07,22,14,37,18.90
2007,07,22,14,38,18.90
2007,07,22,14,39,18.90
2007,07,22,14,40,18.90
2007,07,22,14,41,18.90
2007,07,22,14,42,18.80
2007,07,22,14,43,18.80
2007,07,22,14,44,18.70
2007,07,22,14,45,18.70
2007,07,22,14,46,18.70
2007,07,22,14,47,18.70
2007,07,22,14,48,18.70
2007,07,22,14,49,18.70
2007,07,22,14,50,18.70
2007,07,22,14,51,18.70
2007,07,22,14,52,18.70
2007,07,22,14,53,18.70
2007,07,22,14,54,18.70
2007,07,22,14,55,18.80
2007,07,22,14,56,18.80
2007,07,22,14,57,18.80
2007,07,22,14,58,18.80
2007,07,22,14,59,18.80
2007,07,22,15,00,18.80
2007,07,22,15,01,18.80
2007,07,22,15,02,18.70
2007,07,22,15,03,18.70
2007,07,22,15,04,18.70
2007,07,22,15,05,18.60
2007,07,22,15,06,18.50
2007,07,22,15,07,18.50
2007,07,22,15,08,18.30
2007,07,22,15,09,18.30
2007,07,22,15,10,18.30
2007,07,22,15,11,18.30
2007,07,22,15,12,18.30
2007,07,22,15,13,18.30
2007,07,22,15,14,18.20
2007,07,22,15,15,18.20
2007,07,22,15,16,18.20
2007,07,22,15,17,18.20
2007,07,22,15,18,18.10
2007,07,22,15,19,18.10
2007,07,22,15,20,18.10
2007,07,22,15,21,18.10
2007,07,22,15,22,18.00
2007,07,22,15,23,17.90
2007,07,22,15,24,17.90
2007,07,22,15,25,17.90
2007,07,22,15,26,17.90
2007,07,22,15,27,17.80
2007,07,22,15,28,17.70
2007,07,22,15,29,17.70
2007,07,22,15,30,17.60
2007,07,22,15,31,17.60
2007,07,22,15,32,17.70
2007,07,22,15,33,17.70
2007,07,22,15,34,17.80
2007,07,22,15,35,17.80
2007,07,22,15,36,17.70
2007,07,22,15,37,17.70
2007,07,22,15,38,17.60
2007,07,22,15,39,17.60
2007,07,22,15,40,17.60
2007,07,22,15,41,17.50
2007,07,22,15,42,17.50
2007,07,22,15,43,17.40
2007,07,22,15,44,17.30
2007,07,22,15,45,17.30
2007,07,22,15,46,17.30
2007,07,22,15,47,17.30
2007,07,22,15,48,17.30
2007,07,22,15,49,17.30
2007,07,22,15,50,17.30
2007,07,22,15,51,17.30
2007,07,22,15,52,17.20
2007,07,22,15,53,17.20
2007,07,22,15,54,17.20
2007,07,22,15,55,17.20
2007,07,22,15,56,17.20
2007,07,22,15,57,17.20
2007,07,22,15,58,17.10
2007,07,22,15,59,17.10
2007,07,22,16,00,17.10
2007,07,22,16,01,17.10
2007,07,22,16,02,17.10
2007,07,22,16,03,17.20
2007,07,22,16,04,17.20
2007,07,22,16,05,17.20
2007,07,22,16,06,17.20
2007,07,22,16,07,17.30
2007,07,22,16,08,17.30
2007,07,22,16,09,17.20
2007,07,22,16,10,17.10
2007,07,22,16,11,17.20
2007,07,22,16,12,17.20
2007,07,22,16,13,17.10
2007,07,22,16,14,17.10
2007,07,22,16,15,17.10
2007,07,22,16,16,17.10
2007,07,22,16,17,17.10
2007,07,22,16,18,17.10
2007,07,22,16,19,17.00
2007,07,22,16,20,17.00
2007,07,22,16,21,17.00
2007,07,22,16,22,17.00
2007,07,22,16,23,17.00
2007,07,22,16,24,17.10
2007,07,22,16,25,17.10
2007,07,22,16,26,17.10
2007,07,22,16,27,17.10
2007,07,22,16,28,17.20
2007,07,22,16,29,17.20
2007,07,22,16,30,17.30
2007,07,22,16,31,17.30
2007,07,22,16,32,17.30
2007,07,22,16,33,17.40
2007,07,22,16,34,17.40
2007,07,22,16,35,17.40
2007,07,22,16,36,17.50
2007,07,22,16,37,17.50
2007,07,22,16,38,17.50
2007,07,22,16,39,17.50
2007,07,22,16,40,17.50
2007,07,22,16,41,17.50
2007,07,22,16,42,17.50
2007,07,22,16,43,17.50
2007,07,22,16,44,17.50
2007,07,22,16,45,17.50
2007,07,22,16,46,17.50
2007,07,22,16,47,17.50
2007,07,22,16,48,17.50
2007,07,22,16,49,17.50
2007,07,22,16,50,17.50
2007,07,22,16,51,17.60
2007,07,22,16,52,17.70
2007,07,22,16,53,17.80
2007,07,22,16,54,17.90
2007,07,22,16,55,17.90
2007,07,22,16,56,17.90
2007,07,22,16,57,17.90
2007,07,22,16,58,17.90
2007,07,22,16,59,17.90
2007,07,22,17,00,17.90
2007,07,22,17,01,18.00
2007,07,22,17,02,18.10
2007,07,22,17,03,18.10
2007,07,22,17,04,18.10
2007,07,22,17,05,18.10
2007,07,22,17,06,18.10
2007,07,22,17,07,18.10
2007,07,22,17,08,18.10
2007,07,22,17,09,18.10
2007,07,22,17,10,18.10
2007,07,22,17,11,18.10
2007,07,22,17,12,18.00
2007,07,22,17,13,17.90
2007,07,22,17,14,18.00
2007,07,22,17,15,18.10
2007,07,22,17,16,18.10
2007,07,22,17,17,18.10
2007,07,22,17,18,18.20
2007,07,22,17,19,18.20